Date,TemperatureHighF,TemperatureAvgF,TemperatureLowF,DewpointHighF,DewpointAvgF,DewpointLowF,HumidityHigh,HumidityAvg,HumidityLow,PressureMaxIn,PressureMinIn,WindSpeedMaxMPH,WindSpeedAvgMPH,GustSpeedMaxMPH,PrecipitationSumIn
2013-1-1,33,28,21,30,23,15,91,82,75,30.14,30.03,7,1,13,0.00
2013-1-2,24,19,13,17,14,9,89,81,72,30.27,30.13,4,1,8,0.00
2013-1-3,30,22,10,24,16,7,87,81,67,30.26,30.15,7,2,14,0.00
2013-1-4,29,27,25,24,20,18,84,75,66,30.27,30.15,11,3,22,0.00
2013-1-5,35,30,23,29,24,18,85,79,71,30.38,30.14,5,1,10,0.00
2013-1-6,37,34,31,33,30,28,90,84,79,30.27,29.98,7,2,16,0.00
2013-1-7,36,32,29,29,27,24,89,81,70,30.47,30.25,6,1,11,0.00
2013-1-8,42,33,27,30,26,23,85,77,57,30.33,30.25,3,0,7,0.00
2013-1-9,45,39,32,38,33,29,89,77,66,30.49,30.17,7,2,21,0.00
2013-1-10,42,35,27,32,29,25,93,79,62,30.61,30.23,4,1,10,0.00
2013-1-11,55,48,41,52,44,29,97,85,61,30.21,29.84,5,2,11,0.59
2013-1-12,60,53,48,56,51,47,98,92,82,30.01,29.85,5,1,8,0.00
2013-1-13,63,52,38,59,50,37,98,92,84,30.02,29.70,14,2,21,0.32
2013-1-14,37,31,28,36,26,22,95,82,72,30.46,30.03,6,2,15,0.00
2013-1-15,32,29,27,25,22,20,80,76,64,30.45,30.14,8,1,10,0.00
2013-1-16,34,32,30,27,25,23,84,76,66,30.14,29.91,12,2,15,0.00
2013-1-17,37,34,26,31,27,16,84,75,65,30.29,30.03,7,2,17,0.00
2013-1-18,35,28,22,23,17,10,80,64,55,30.51,30.12,12,2,17,0.00
2013-1-19,50,43,35,31,27,22,64,54,47,30.13,29.72,16,4,20,0.00
2013-1-20,47,29,21,35,17,11,80,62,53,30.19,29.68,22,5,28,0.00
2013-1-21,22,19,11,16,10,3,84,70,59,30.17,29.99,13,4,21,0.00
2013-1-22,12,9,7,5,2,-1,86,75,59,30.35,30.14,17,3,17,0.00
2013-1-23,18,12,6,13,6,-1,85,76,63,30.36,30.14,7,1,11,0.00
2013-1-24,22,16,12,14,9,5,90,72,49,30.62,30.14,11,2,15,0.00
2013-1-25,22,18,12,17,13,7,87,80,71,30.56,30.09,3,0,8,0.00
2013-1-26,26,23,19,21,18,14,90,81,71,30.48,30.12,7,1,12,0.00
2013-1-27,33,24,12,25,18,8,87,76,61,30.56,30.28,3,1,6,0.00
2013-1-28,47,41,31,46,40,25,98,94,79,30.27,29.95,5,2,13,0.00
2013-1-29,60,52,40,56,50,39,99,94,84,30.05,29.62,5,1,12,0.00
2013-1-30,61,55,37,56,52,35,96,87,78,29.61,29.15,11,3,29,0.00
2013-1-31,36,26,19,34,20,8,89,76,63,29.91,29.28,18,6,30,0.00
2013-2-1,19,16,13,14,10,8,86,75,66,30.35,29.91,12,4,21,0.00
2013-2-2,25,20,15,22,16,8,89,83,72,30.34,30.01,5,1,13,0.00
2013-2-3,24,20,18,21,16,13,90,83,70,30.06,29.92,9,2,16,0.00
2013-2-4,28,23,18,24,19,14,89,85,80,30.09,29.91,3,0,8,0.00
2013-2-5,30,27,24,25,22,20,91,83,69,29.97,29.88,4,0,9,0.00
2013-2-6,30,26,22,27,18,14,91,73,51,30.36,29.98,7,1,10,0.00
2013-2-7,44,34,21,31,25,16,80,70,57,30.33,29.86,4,1,7,0.00
2013-2-8,41,32,26,37,29,22,94,87,76,30.29,29.74,14,4,22,0.00
2013-2-9,32,27,22,23,21,19,88,80,61,30.47,30.30,8,1,14,0.00
2013-2-10,48,36,22,37,24,18,86,64,39,30.35,29.82,6,1,10,0.00
2013-2-11,51,41,34,44,34,25,93,77,65,29.93,29.67,16,5,26,0.00
2013-2-12,37,33,28,28,26,24,90,75,67,30.11,29.94,8,2,23,0.00
2013-2-13,35,30,27,27,25,23,89,82,70,29.95,29.78,5,1,10,0.00
2013-2-14,41,35,27,36,31,24,89,85,75,29.91,29.80,8,2,19,0.00
2013-2-15,37,32,28,30,25,18,85,77,65,30.12,29.92,8,2,15,0.00
2013-2-16,30,25,21,23,19,14,91,77,56,30.12,29.99,8,1,11,0.00
2013-2-17,22,20,13,17,13,8,88,75,60,30.29,30.02,7,2,14,0.00
2013-2-18,45,28,10,33,19,6,86,69,55,30.30,29.75,6,2,9,0.00
2013-2-19,45,32,18,39,27,11,93,83,61,30.00,29.59,12,5,27,0.00
2013-2-20,23,20,17,18,14,12,89,75,63,30.27,30.00,11,4,18,0.00
2013-2-21,23,21,19,19,16,14,89,80,69,30.42,30.25,7,2,11,0.00
2013-2-22,38,31,21,36,27,15,93,86,76,30.34,29.95,10,2,12,0.00
2013-2-23,36,34,31,32,28,24,89,80,69,29.99,29.91,6,1,12,0.00
2013-2-24,34,31,28,28,24,21,82,76,68,30.18,29.92,9,2,13,0.00
2013-2-25,42,32,23,28,25,21,93,76,54,30.25,30.09,6,1,14,0.00
2013-2-26,39,35,28,37,30,23,94,83,64,30.12,29.51,9,2,19,0.00
2013-2-27,43,39,34,40,37,32,96,93,85,29.65,29.50,11,2,13,0.00
2013-2-28,36,34,31,34,31,29,95,91,87,29.92,29.60,7,2,18,0.00
2013-3-1,31,29,27,29,26,23,90,87,81,30.07,29.92,13,3,14,0.00
2013-3-2,29,27,25,25,24,21,91,86,78,30.05,30.01,7,2,14,0.00
2013-3-3,28,25,24,23,20,18,91,82,71,30.08,30.02,8,2,12,0.00
2013-3-4,35,26,16,25,20,13,90,78,62,30.18,30.08,7,1,10,0.00
2013-3-5,41,30,20,29,23,17,90,77,48,30.15,29.71,9,2,11,0.00
2013-3-6,43,36,32,32,29,27,92,76,62,30.20,29.71,10,2,17,0.00
2013-3-7,37,34,31,34,31,28,93,89,84,30.39,30.20,5,1,8,0.00
2013-3-8,37,31,25,31,27,22,94,87,76,30.50,30.39,4,0,8,0.00
2013-3-9,54,40,24,34,30,22,95,70,47,30.47,30.11,4,1,8,0.00
2013-3-10,69,58,48,42,36,31,61,46,34,30.10,29.85,6,2,15,0.00
2013-3-11,61,52,42,51,45,37,93,77,40,29.85,29.54,8,2,18,0.00
2013-3-12,42,37,34,37,32,29,89,81,75,29.99,29.75,15,2,15,0.00
2013-3-13,34,31,30,29,24,18,85,75,58,30.20,29.92,14,4,26,0.00
2013-3-14,38,31,25,24,21,16,80,67,54,30.27,30.14,9,2,18,0.00
2013-3-15,45,37,30,36,31,24,93,79,68,30.14,29.87,8,2,12,0.00
2013-3-16,37,33,30,35,31,26,96,91,83,30.04,29.69,9,1,15,0.00
2013-3-17,33,31,28,29,24,20,90,76,63,30.25,30.05,10,2,13,0.00
2013-3-18,46,35,28,45,32,20,97,86,72,30.19,29.59,9,3,18,0.00
2013-3-19,41,32,28,39,24,18,93,73,59,29.98,29.71,18,5,24,0.00
2013-3-20,32,29,23,23,20,13,85,70,56,29.99,29.92,12,3,14,0.00
2013-3-21,31,24,18,26,19,13,91,81,67,29.95,29.91,7,2,17,0.00
2013-3-22,37,30,26,26,24,22,88,78,63,30.04,29.95,8,2,14,0.00
2013-3-23,40,31,22,30,24,20,92,77,60,30.10,30.02,7,1,13,0.00
2013-3-24,37,32,27,26,24,21,87,72,56,30.06,29.53,9,2,19,0.00
2013-3-25,35,34,32,33,31,26,95,91,70,29.85,29.47,10,2,16,0.00
2013-3-26,42,36,32,34,32,30,95,86,66,30.12,29.86,7,1,13,0.00
2013-3-27,45,38,33,33,30,27,94,75,51,30.20,30.11,8,3,15,0.00
2013-3-28,45,40,35,34,30,27,75,68,58,30.28,30.18,9,2,15,0.00
2013-3-29,49,42,34,33,28,21,84,60,35,30.29,30.22,7,1,13,0.00
2013-3-30,56,43,28,31,27,24,84,58,32,30.25,29.99,7,1,10,0.00
2013-3-31,54,48,42,47,36,25,86,64,49,29.98,29.67,8,1,13,0.01
2013-4-1,48,38,33,41,24,13,89,58,37,30.09,29.67,13,4,18,0.00
2013-4-2,40,33,27,23,18,9,79,54,33,30.23,30.09,11,2,15,0.01
2013-4-3,37,32,25,24,18,13,77,56,40,30.47,30.24,9,2,19,0.00
2013-4-4,56,41,24,22,17,13,74,43,19,30.42,29.99,5,1,9,0.00
2013-4-5,44,39,32,33,25,18,76,57,43,30.24,29.95,9,2,16,0.00
2013-4-6,56,44,27,24,20,14,76,44,23,30.30,29.92,7,1,8,0.00
2013-4-7,72,57,47,46,37,17,69,48,24,30.01,29.77,15,3,26,0.00
2013-4-8,72,57,39,57,45,34,86,67,48,30.04,29.81,9,2,14,0.02
2013-4-9,80,64,48,58,51,43,86,63,45,30.09,29.83,6,2,17,0.00
2013-4-10,71,52,42,66,49,40,96,87,66,29.96,29.79,6,1,20,1.21
2013-4-11,51,45,41,50,44,40,98,95,88,29.92,29.61,7,1,19,0.35
2013-4-12,48,44,41,48,40,35,98,89,74,29.85,29.46,8,2,16,0.27
2013-4-13,44,41,37,39,35,32,91,80,70,30.04,29.85,9,3,16,0.03
2013-4-14,58,45,33,40,35,30,91,71,48,30.15,29.96,6,1,10,0.00
2013-4-15,72,61,50,53,47,38,74,61,49,30.03,29.93,6,2,12,0.00
2013-4-16,68,58,50,61,53,49,94,83,74,30.18,29.93,5,1,17,0.17
2013-4-17,59,53,46,54,44,38,96,74,52,30.29,30.04,10,2,14,0.00
2013-4-18,85,71,59,66,59,54,88,68,38,30.03,29.64,9,3,15,0.00
2013-4-19,70,53,40,61,44,30,91,73,58,29.84,29.35,15,4,24,0.35
2013-4-20,44,39,34,33,28,25,85,66,50,30.44,29.84,14,3,20,0.02
2013-4-21,47,39,31,32,28,26,87,67,47,30.63,30.44,10,2,15,0.00
2013-4-22,66,51,36,42,34,27,75,55,35,30.49,30.21,5,1,9,0.00
2013-4-23,73,60,45,52,38,28,74,46,33,30.22,29.86,5,2,11,0.02
2013-4-24,60,47,37,54,44,35,94,89,64,30.17,29.72,9,2,12,0.71
2013-4-25,53,42,32,45,36,30,93,79,50,30.38,30.17,8,1,17,0.09
2013-4-26,60,46,32,38,33,28,95,65,32,30.50,30.37,5,1,8,0.00
2013-4-27,71,54,39,42,37,32,83,56,26,30.40,30.11,7,1,10,0.00
2013-4-28,58,54,48,56,49,40,94,83,66,30.10,29.86,3,1,6,0.19
2013-4-29,68,61,56,58,55,52,96,82,61,29.97,29.86,5,1,10,0.02
2013-4-30,77,64,51,59,54,49,97,72,47,30.09,29.97,5,1,11,0.00
2013-5-1,81,69,56,61,54,51,82,61,40,30.23,30.09,4,1,11,0.00
2013-5-2,79,69,57,54,45,38,65,44,30,30.28,30.13,5,1,8,0.00
2013-5-3,78,68,57,48,42,37,59,40,25,30.17,30.05,5,1,10,0.00
2013-5-4,74,65,55,45,41,36,57,43,26,30.14,30.03,13,2,15,0.00
2013-5-5,75,65,55,44,38,28,63,41,19,30.08,29.97,10,1,17,0.00
2013-5-6,75,65,52,53,44,28,68,48,29,30.04,29.94,5,1,11,0.00
2013-5-7,74,65,58,59,54,51,81,68,52,30.01,29.94,5,1,10,0.00
2013-5-8,73,64,55,57,54,51,92,71,51,29.98,29.92,5,1,16,0.02
2013-5-9,79,67,56,58,50,36,95,61,23,29.97,29.91,8,1,9,0.01
2013-5-10,74,65,52,66,58,43,95,82,44,29.92,29.74,7,1,14,1.22
2013-5-11,56,50,45,51,47,44,95,91,79,29.89,29.79,5,1,13,0.04
2013-5-12,50,44,38,43,34,29,90,68,46,30.09,29.90,12,2,19,0.00
2013-5-13,51,44,36,32,30,24,81,59,35,30.20,30.08,7,2,14,0.00
2013-5-14,69,54,38,47,38,30,78,58,40,30.17,29.79,5,0,10,0.00
2013-5-15,86,71,58,63,54,44,82,58,30,29.82,29.67,16,2,21,0.00
2013-5-16,80,69,55,55,49,40,84,53,24,29.95,29.74,6,1,14,0.00
2013-5-17,76,64,53,54,47,42,78,56,37,30.11,29.94,9,1,14,0.00
2013-5-18,81,68,57,59,52,42,68,56,30,30.12,30.00,7,1,12,0.00
2013-5-19,83,74,64,68,63,54,88,70,54,30.03,29.90,5,0,7,0.00
2013-5-20,85,76,65,73,68,62,94,77,65,29.95,29.83,3,0,8,0.00
2013-5-21,87,78,71,70,66,61,90,69,46,29.86,29.73,3,0,11,0.00
2013-5-22,86,76,66,67,64,61,93,67,48,29.79,29.65,10,1,14,0.84
2013-5-23,73,60,43,64,56,41,95,89,67,30.05,29.70,8,1,15,0.17
2013-5-24,47,44,39,42,37,34,94,79,64,30.35,30.05,10,2,18,0.05
2013-5-25,60,48,34,42,36,32,96,67,41,30.39,30.29,6,1,15,0.00
2013-5-26,64,52,36,44,37,32,95,61,32,30.35,30.24,7,1,13,0.00
2013-5-27,59,52,41,53,45,37,93,78,52,30.27,30.04,3,0,7,0.14
2013-5-28,83,68,54,71,61,52,97,81,58,30.04,29.88,6,0,11,0.28
2013-5-29,87,76,67,72,65,61,90,69,48,30.01,29.89,8,1,17,0.07
2013-5-30,88,77,66,71,65,61,90,68,43,30.11,29.99,3,0,8,0.00
2013-5-31,87,76,68,72,66,61,95,74,54,30.02,29.90,12,1,16,0.96
2013-6-1,82,74,66,73,68,64,96,83,67,29.93,29.71,5,1,15,0.57
2013-6-2,77,70,62,66,62,55,96,78,57,29.91,29.71,11,2,17,0.18
2013-6-3,62,57,50,55,47,36,84,69,39,30.09,29.91,8,2,14,0.00
2013-6-4,67,57,45,53,44,39,94,65,41,30.18,30.09,10,1,14,0.00
2013-6-5,74,61,49,54,49,45,89,66,43,30.16,29.93,12,1,13,0.00
2013-6-6,62,58,55,60,55,50,97,89,65,29.93,29.81,8,1,11,0.37
2013-6-7,60,57,55,57,55,54,97,94,87,29.89,29.83,6,1,9,0.01
2013-6-8,70,62,57,59,56,53,95,82,63,30.09,29.89,4,0,7,0.00
2013-6-9,80,69,56,64,59,52,87,73,50,30.13,29.95,7,0,10,0.01
2013-6-10,73,69,65,71,66,62,97,91,79,29.94,29.73,3,0,8,0.52
2013-6-11,79,70,64,69,65,63,97,84,64,29.88,29.75,8,1,11,0.00
2013-6-12,79,73,65,72,68,63,95,84,67,29.89,29.64,4,0,7,0.00
2013-6-13,73,67,62,68,61,55,96,83,59,29.85,29.47,14,2,18,0.59
2013-6-14,70,63,56,61,56,53,94,80,57,30.07,29.84,6,1,13,0.00
2013-6-15,79,66,50,63,56,48,97,74,41,30.12,29.96,5,0,9,0.01
2013-6-16,81,72,65,70,65,60,96,81,64,29.96,29.82,5,1,12,0.33
2013-6-17,82,72,64,72,65,61,97,79,53,29.92,29.85,5,0,12,0.00
2013-6-18,73,67,60,64,59,53,89,75,59,30.01,29.84,13,2,18,0.00
2013-6-19,72,63,51,55,51,48,95,66,46,30.16,30.01,8,1,13,0.00
2013-6-20,79,67,52,60,53,48,89,63,39,30.22,30.16,6,1,10,0.00
2013-6-21,86,73,60,65,60,53,84,65,43,30.22,30.10,6,0,8,0.00
2013-6-22,90,79,66,74,67,60,84,68,54,30.13,29.99,4,0,8,0.00
2013-6-23,91,81,71,72,68,66,87,67,45,30.08,29.97,5,1,10,0.00
2013-6-24,89,80,68,70,67,63,85,66,45,30.08,29.93,6,1,12,0.00
2013-6-25,91,77,67,74,69,59,91,76,53,29.97,29.80,8,1,19,3.77
2013-6-26,83,74,67,74,67,60,86,77,66,29.89,29.75,6,1,9,0.18
2013-6-27,80,72,69,71,67,63,87,82,67,29.76,29.62,4,0,7,0.43
2013-6-28,80,70,64,70,64,59,87,80,60,29.61,29.47,5,1,14,0.05
2013-6-29,76,68,63,68,63,59,88,83,71,29.68,29.51,7,1,8,0.04
2013-6-30,73,68,63,67,63,60,89,84,75,29.87,29.67,8,1,12,0.07
2013-7-1,73,68,64,68,64,61,88,87,83,29.98,29.84,7,1,12,0.12
2013-7-2,80,70,63,72,64,59,89,83,70,30.04,29.94,5,1,9,0.12
2013-7-3,84,75,65,75,68,61,88,79,63,30.10,30.02,4,0,6,0.01
2013-7-4,80,75,70,72,69,66,88,82,71,30.14,30.08,4,0,7,0.05
2013-7-5,79,73,70,72,69,64,88,85,77,30.11,30.06,3,0,7,0.28
2013-7-6,85,74,69,74,69,65,89,85,66,30.12,29.97,2,0,6,0.12
2013-7-7,80,73,68,71,68,65,89,82,65,30.05,29.96,6,1,10,0.25
2013-7-8,85,72,65,75,67,61,89,84,67,30.07,30.00,5,0,16,0.33
2013-7-9,87,76,70,78,70,65,88,83,70,30.03,29.90,6,1,15,0.89
2013-7-10,88,74,69,81,70,65,90,86,78,29.92,29.74,9,0,24,0.84
2013-7-11,74,70,64,67,61,57,90,76,55,30.01,29.89,9,1,12,0.00
2013-7-12,76,69,59,67,62,56,90,80,63,30.09,30.01,8,1,13,0.00
2013-7-13,84,74,62,71,66,59,90,77,57,30.18,30.09,8,1,13,0.00
2013-7-14,87,78,68,75,71,65,90,79,63,30.23,30.18,5,0,7,0.00
2013-7-15,91,81,72,77,73,69,89,78,56,30.29,30.21,7,0,7,0.00
2013-7-16,89,81,73,80,74,69,89,80,67,30.28,30.21,4,0,8,0.00
2013-7-17,92,83,74,78,74,71,89,75,54,30.26,30.12,6,0,9,0.00
2013-7-18,92,84,76,78,75,72,89,75,56,30.14,29.96,4,0,8,0.00
2013-7-19,93,84,76,77,74,72,87,74,56,29.97,29.77,6,1,16,0.00
2013-7-20,81,74,68,74,69,64,89,85,76,29.88,29.74,13,1,14,0.88
2013-7-21,82,75,68,73,68,64,89,80,67,29.94,29.87,5,1,9,0.00
2013-7-22,76,70,65,73,66,62,90,89,86,29.94,29.75,1,0,4,0.11
2013-7-23,84,73,64,75,67,60,89,82,63,29.78,29.62,8,1,16,0.22
2013-7-24,69,65,58,62,55,52,86,70,59,30.02,29.78,8,3,16,0.00
2013-7-25,75,65,54,57,53,51,90,69,45,30.09,30.01,8,1,11,0.00
2013-7-26,80,68,54,61,57,51,90,70,47,30.09,29.94,5,0,9,0.00
2013-7-27,71,68,64,66,63,60,89,85,77,29.94,29.77,4,0,8,0.21
2013-7-28,71,63,55,61,56,53,91,77,55,30.00,29.83,9,1,12,0.11
2013-7-29,70,63,55,62,57,52,91,82,60,30.18,30.00,5,0,10,0.00
2013-7-30,77,67,55,64,59,52,91,77,53,30.22,30.13,7,1,8,0.00
2013-7-31,80,71,63,68,64,59,89,78,60,30.14,29.89,3,0,8,0.00
2013-8-1,79,70,65,68,63,58,90,79,52,29.89,29.83,5,1,11,0.07
2013-8-2,73,67,59,64,61,56,90,81,61,29.96,29.86,6,0,8,0.21
2013-8-3,77,71,63,67,61,54,90,73,47,29.98,29.89,7,1,12,0.00
2013-8-4,71,65,59,60,57,55,90,77,57,30.11,29.97,7,1,13,0.21
2013-8-5,74,66,58,62,57,53,90,75,49,30.12,29.98,4,0,5,0.00
2013-8-6,81,70,60,64,61,57,89,73,52,30.00,29.92,1,0,5,0.00
2013-8-7,78,71,64,71,66,60,89,85,78,29.95,29.85,2,0,7,0.31
2013-8-8,82,74,71,75,70,66,89,87,77,29.93,29.89,5,1,10,0.07
2013-8-9,77,70,63,67,62,51,90,76,42,29.99,29.89,6,1,10,0.31
2013-8-10,78,69,61,66,60,56,90,74,57,30.10,30.00,7,1,10,0.00
2013-8-11,80,71,62,63,60,58,89,70,51,30.11,30.01,7,1,9,0.00
2013-8-12,81,72,63,69,65,60,90,78,61,30.05,29.81,7,1,11,0.00
2013-8-13,73,66,57,68,59,49,90,78,58,29.98,29.77,10,1,13,0.04
2013-8-14,68,61,56,56,52,49,86,72,53,30.16,29.98,8,1,12,0.00
2013-8-15,73,62,50,56,52,47,91,73,46,30.20,30.11,6,0,7,0.00
2013-8-16,76,64,53,59,54,50,91,71,46,30.18,30.12,7,1,9,0.00
2013-8-17,81,67,54,63,57,51,91,72,44,30.23,30.16,3,0,10,0.00
2013-8-18,79,68,56,66,60,53,90,78,56,30.20,30.09,5,0,8,0.00
2013-8-19,80,70,61,68,61,58,90,76,47,30.12,30.05,5,0,8,0.00
2013-8-20,86,72,61,67,62,58,90,71,45,30.16,30.07,5,0,7,0.00
2013-8-21,86,74,61,68,64,59,90,72,47,30.16,30.01,5,0,7,0.00
2013-8-22,84,75,68,73,69,64,89,82,67,30.05,29.96,4,0,9,0.28
2013-8-23,80,73,62,69,61,51,89,69,39,30.16,29.98,9,2,16,0.00
2013-8-24,80,68,56,62,56,53,90,68,40,30.30,30.17,9,1,11,0.00
2013-8-25,84,71,57,65,59,54,90,69,42,30.32,30.18,8,1,9,0.00
2013-8-26,85,76,67,69,64,59,80,68,52,30.19,29.98,8,1,12,0.00
2013-8-27,80,75,71,75,70,67,89,85,77,30.01,29.86,4,0,11,1.46
2013-8-28,78,74,70,74,70,67,90,88,83,29.95,29.78,5,1,9,0.51
2013-8-29,85,76,69,73,69,66,91,81,62,30.03,29.94,5,1,10,0.00
2013-8-30,86,75,65,73,68,62,90,78,59,29.99,29.77,4,0,11,0.00
2013-8-31,84,76,70,75,70,67,90,83,68,29.80,29.67,5,1,14,0.01
2013-9-1,82,75,70,74,70,67,91,86,72,29.79,29.71,6,0,6,0.00
2013-9-2,79,72,67,72,67,61,91,83,65,29.84,29.71,5,1,12,0.00
2013-9-3,67,64,57,61,56,54,90,78,69,30.02,29.84,4,1,9,0.00
2013-9-4,77,65,54,62,57,52,92,77,49,30.11,30.02,6,1,9,0.00
2013-9-5,69,65,55,62,56,47,89,72,48,30.23,30.04,6,1,13,0.00
2013-9-6,74,60,47,55,50,45,92,71,36,30.27,30.11,4,0,8,0.00
2013-9-7,80,67,53,69,59,50,90,78,57,30.10,29.91,5,0,8,0.03
2013-9-8,73,68,58,67,62,53,91,82,64,30.05,29.89,11,2,16,0.00
2013-9-9,79,67,54,72,63,51,91,85,75,30.05,29.95,3,0,7,0.00
2013-9-10,94,82,74,76,72,69,88,72,47,30.03,29.95,6,0,11,0.00
2013-9-11,91,81,74,75,72,69,87,74,50,30.07,29.92,5,0,9,0.00
2013-9-12,76,70,61,70,66,59,91,86,65,29.93,29.79,4,0,12,0.47
2013-9-13,62,58,54,59,52,45,92,84,69,30.07,29.86,8,1,14,0.25
2013-9-14,64,56,48,51,47,43,91,73,55,30.17,30.07,7,1,11,0.00
2013-9-15,68,58,47,58,52,45,92,80,58,30.16,30.05,5,0,8,0.05
2013-9-16,64,60,51,58,54,48,92,83,69,30.32,30.10,10,1,15,0.01
2013-9-17,68,56,44,52,47,42,92,74,41,30.40,30.24,6,0,9,0.00
2013-9-18,74,62,50,61,54,46,90,77,57,30.24,30.06,2,0,5,0.00
2013-9-19,78,68,61,68,64,58,91,86,72,30.09,29.96,3,0,7,0.00
2013-9-20,83,73,66,73,68,63,91,84,69,29.98,29.73,3,0,12,0.89
2013-9-21,69,65,60,66,61,56,92,88,73,29.80,29.63,6,0,11,0.58
2013-9-22,59,56,54,54,49,46,85,76,66,30.04,29.81,10,1,11,0.00
2013-9-23,60,55,46,50,48,44,90,78,63,30.17,30.04,3,0,7,0.00
2013-9-24,65,52,42,54,47,39,92,82,55,30.15,29.99,7,1,12,0.00
2013-9-25,72,57,45,58,50,43,92,80,43,30.00,29.91,7,0,10,0.00
2013-9-26,70,57,46,55,49,44,92,75,41,30.12,29.96,8,1,11,0.00
2013-9-27,71,58,47,58,52,45,92,80,51,30.21,30.12,7,1,13,0.00
2013-9-28,75,62,52,60,55,50,92,78,52,30.21,30.08,3,0,7,0.00
2013-9-29,73,64,56,63,58,53,91,83,68,30.08,29.96,1,0,5,0.00
2013-9-30,67,63,59,63,60,57,91,89,84,30.00,29.94,2,0,6,0.05
2013-10-1,76,65,57,65,59,55,91,82,63,30.06,29.96,5,0,12,0.00
2013-10-2,77,68,62,68,63,59,91,85,72,30.07,29.99,5,0,9,0.00
2013-10-3,79,69,62,71,65,60,91,86,68,30.06,29.96,3,0,11,0.01
2013-10-4,78,71,65,69,66,62,91,86,72,30.04,29.99,6,0,8,0.04
2013-10-5,76,69,65,70,66,62,91,90,79,30.04,29.91,2,0,5,0.64
2013-10-6,77,70,58,70,66,56,92,86,73,29.90,29.65,5,0,14,0.89
2013-10-7,59,54,47,55,48,45,92,82,63,30.13,29.70,10,1,19,0.46
2013-10-8,66,55,46,52,47,41,92,78,44,30.30,30.13,5,0,10,0.00
2013-10-9,67,54,44,49,46,42,92,76,44,30.32,30.22,4,0,10,0.00
2013-10-10,65,53,43,51,46,41,92,77,46,30.24,30.12,6,1,9,0.00
2013-10-11,70,55,44,58,49,42,92,81,51,30.15,30.06,4,0,8,0.00
2013-10-12,74,62,51,65,56,47,91,83,69,30.12,30.05,3,0,7,0.00
2013-10-13,66,63,56,62,58,52,91,85,71,30.29,30.11,3,0,7,0.00
2013-10-14,62,54,47,53,48,43,92,81,64,30.36,30.26,8,1,13,0.00
2013-10-15,63,55,44,60,52,41,92,90,87,30.25,29.93,4,0,6,0.04
2013-10-16,68,61,49,65,58,46,91,88,77,29.92,29.79,8,0,10,0.74
2013-10-17,57,49,44,51,46,42,92,90,70,29.92,29.78,8,0,10,0.15
2013-10-18,62,52,43,49,46,41,92,78,58,29.98,29.88,7,1,13,0.00
2013-10-19,53,46,41,46,43,39,92,89,77,29.92,29.76,5,0,13,0.29
2013-10-20,58,48,39,44,41,37,92,77,55,29.98,29.91,12,1,14,0.00
2013-10-21,64,54,47,50,44,41,92,72,50,29.97,29.81,11,1,11,0.17
2013-10-22,50,43,36,47,35,32,91,74,54,29.98,29.85,8,1,14,0.00
2013-10-23,45,40,37,41,36,33,92,84,64,29.94,29.80,8,1,12,0.18
2013-10-24,45,38,33,36,33,31,92,84,64,30.17,29.94,7,1,15,0.12
2013-10-25,46,39,33,37,33,30,93,81,56,30.36,30.17,6,1,10,0.01
2013-10-26,47,41,36,39,32,29,92,71,58,30.22,29.87,7,1,18,0.06
2013-10-27,50,42,35,39,36,33,93,81,59,30.11,30.00,5,0,9,0.00
2013-10-28,55,43,35,44,38,33,90,82,64,30.35,30.09,5,0,9,0.00
2013-10-29,56,43,33,42,37,31,92,81,51,30.42,30.26,6,0,7,0.00
2013-10-30,63,51,39,54,46,37,92,81,63,30.25,30.02,2,0,6,0.00
2013-10-31,65,61,58,60,58,55,92,89,78,30.02,29.27,7,1,18,0.36
2013-11-1,60,53,47,58,48,43,92,82,71,29.69,29.21,14,2,21,0.32
2013-11-2,50,46,44,45,44,40,92,89,83,30.03,29.67,6,1,12,0.18
2013-11-3,46,41,33,40,35,28,92,80,65,30.48,30.04,7,1,11,0.00
2013-11-4,48,39,31,32,28,25,84,66,44,30.53,30.39,5,0,9,0.00
2013-11-5,60,51,41,46,40,31,75,67,57,30.43,30.26,3,0,7,0.00
2013-11-6,66,56,49,56,46,36,92,71,55,30.26,29.89,7,2,12,0.12
2013-11-7,48,43,40,46,36,29,92,79,60,30.13,29.95,10,2,18,0.14
2013-11-8,42,37,31,34,32,28,91,80,59,30.31,30.12,8,1,14,0.04
2013-11-9,57,47,31,42,35,28,89,66,47,30.27,29.89,8,2,24,0.00
2013-11-10,50,44,35,41,34,29,83,67,56,30.29,29.94,14,3,21,0.00
2013-11-11,48,39,31,40,33,29,92,79,54,30.28,30.05,13,2,18,0.21
2013-11-12,34,32,29,29,25,20,92,77,61,30.53,30.25,9,2,15,0.06
2013-11-13,36,31,27,24,22,20,80,69,56,30.57,30.30,10,2,12,0.00
2013-11-14,48,38,28,27,24,21,76,58,40,30.30,30.10,8,2,15,0.00
2013-11-15,50,44,38,33,28,24,65,52,39,30.15,30.08,5,1,14,0.00
2013-11-16,59,50,40,52,45,33,88,80,67,30.18,29.90,4,1,9,0.00
2013-11-17,63,58,52,58,54,42,91,85,66,29.91,29.39,14,4,32,0.00
2013-11-18,52,44,37,42,35,27,81,72,65,30.13,29.57,15,5,23,0.00
2013-11-19,39,36,28,28,26,25,86,69,60,30.44,30.13,9,2,15,0.00
2013-11-20,46,35,24,26,22,18,91,61,36,30.47,30.32,4,1,14,0.00
2013-11-21,45,43,40,43,34,19,91,74,44,30.38,30.21,4,1,7,0.00
2013-11-22,49,44,36,47,41,29,92,89,77,30.34,30.14,10,2,16,0.00
2013-11-23,36,30,22,30,22,6,87,71,49,30.46,30.25,11,3,22,0.00
2013-11-24,24,22,20,15,10,6,77,61,53,30.60,30.47,13,4,20,0.00
2013-11-25,34,27,20,22,17,14,81,66,51,30.52,30.20,7,2,13,0.00
2013-11-26,36,33,32,31,29,24,92,84,66,30.20,29.87,4,0,9,0.00
2013-11-27,33,28,25,31,22,15,92,77,64,30.18,29.83,10,4,19,0.00
2013-11-28,30,26,20,23,18,14,87,74,64,30.45,30.18,10,1,10,0.00
2013-11-29,33,27,19,25,21,16,89,79,66,30.68,30.45,4,0,6,0.00
2013-11-30,39,32,26,29,25,20,80,74,65,30.63,30.18,4,1,8,0.00
2013-12-1,42,37,34,34,31,29,88,78,71,30.18,29.98,3,0,7,0.00
2013-12-2,40,36,33,34,32,30,91,86,75,29.98,29.88,4,0,9,0.00
2013-12-3,50,41,33,42,36,30,91,84,73,29.93,29.85,4,0,5,0.00
2013-12-4,58,51,42,51,46,39,90,82,75,29.94,29.74,4,1,8,0.00
2013-12-5,61,51,34,56,45,30,91,80,64,30.12,29.73,12,3,17,0.00
2013-12-6,34,32,28,31,28,25,92,87,74,30.37,30.10,6,1,9,0.00
2013-12-7,28,24,22,25,18,15,90,76,67,30.63,30.37,8,2,12,0.00
2013-12-8,30,25,20,27,19,16,90,77,64,30.63,30.05,10,1,14,0.00
2013-12-9,34,31,26,32,27,19,92,84,76,30.17,29.95,11,3,17,0.00
2013-12-10,27,23,20,19,14,9,78,70,49,30.29,30.03,11,3,20,0.00
2013-12-11,25,21,18,21,16,10,90,80,71,30.46,30.28,7,2,15,0.00
2013-12-12,20,16,9,10,6,4,82,66,50,30.51,30.28,13,2,15,0.00
2013-12-13,30,25,18,21,15,7,77,67,60,30.30,30.23,8,1,12,0.00
2013-12-14,33,30,26,31,27,20,92,90,74,30.28,29.70,3,0,8,0.00
2013-12-15,33,22,14,31,19,10,92,87,81,30.09,29.71,13,3,14,0.00
2013-12-16,24,18,10,20,12,6,89,79,64,30.23,30.04,7,0,8,0.00
2013-12-17,28,26,21,26,22,18,92,87,80,30.08,29.95,7,2,11,0.00
2013-12-18,29,26,24,24,21,18,89,81,71,30.19,30.01,6,2,11,0.00
2013-12-19,45,38,29,36,30,20,80,73,63,30.06,29.96,3,1,12,0.00
2013-12-20,53,46,41,50,42,35,91,86,71,29.96,29.79,6,1,11,0.00
2013-12-21,56,46,37,53,44,35,91,90,88,29.83,29.45,6,1,15,0.00
2013-12-22,61,50,37,56,46,34,91,85,70,29.99,29.45,16,3,20,0.00
2013-12-23,40,34,28,37,28,20,91,82,69,30.33,29.98,7,2,14,0.00
2013-12-24,28,20,16,23,15,11,87,80,68,30.58,30.30,7,2,15,0.00
2013-12-25,28,23,16,24,16,12,85,76,65,30.55,30.20,5,1,8,0.00
2013-12-26,31,29,24,28,23,19,90,78,69,30.36,30.12,13,2,18,0.00
2013-12-27,41,35,28,32,28,22,79,74,69,30.37,30.20,12,1,12,0.00
2013-12-28,52,43,37,36,33,30,78,68,52,30.19,29.99,10,2,12,0.00
2013-12-29,43,39,28,39,33,25,91,79,61,29.98,29.71,7,1,15,0.00
2013-12-30,28,23,21,25,19,14,91,84,69,30.28,29.97,6,1,12,0.00
2013-12-31,24,20,18,20,15,11,89,81,70,30.37,30.10,11,2,17,0.00
2014-1-1,26,23,20,21,19,17,89,86,81,30.38,30.16,7,1,10,0.00
2014-1-2,23,19,13,20,17,8,90,89,79,30.16,29.89,14,4,26,0.00